Skip Page Navigation
NASA JPL Caltech
NASA Logo - Jet Propulsion Laboratory + View the NASA Portal
+ Center for Near-Earth Object Studies
JPL Home Earth Solar System Stars & Galaxies Technology
JPL Solar System Dynamics
BODIES ORBITS EPHEMERIDES TOOLS PHYSICAL DATA DISCOVERY FAQ SITE MAP
IMPORTANT: The SSD Announcement email list is now available. Major changes are coming in the near future, including possible hostname and/or URL changes. To be notified of such changes, subscribe to this email list.

Please visit this page for more details.


JPL Small-Body Database Browser
Search: [ help ]  
7079 Baghdad (1986 RR)
Classification: Mars-crossing Asteroid          SPK-ID: 2007079
Ephemeris | Orbit Diagram | Orbital Elements | Mission Design | Physical Parameters | Discovery Circumstances ]

[ show orbit diagram ]
Orbital Elements at Epoch 2459000.5 (2020-May-31.0) TDB
Reference: JPL 25 (heliocentric ecliptic J2000)
 Element Value Uncertainty (1-sigma)   Units 
e .2952746495141497 2.8935e-08  
a 2.286042766359339 7.647e-09 au
q 1.611032289748228 6.6151e-08 au
i 3.885838672234031 4.1338e-06 deg
node 202.6878996296126 5.7392e-05 deg
peri 121.5752513649984 5.7926e-05 deg
M 278.3652359394713 1.0053e-05 deg
tp 2459286.784341134342
(2021-Mar-13.28434113)
3.6094e-05 TDB
period 1262.481296962489
3.46
6.3346e-06
1.734e-08
d
yr
n .2851527391860414 1.4308e-09 deg/d
Q 2.96105324297045 9.9049e-09 au
  Orbit Determination Parameters
   # obs. used (total)      1360  
   data-arc span      12223 days (33.46 yr)  
   first obs. used      1986-08-12  
   last obs. used      2020-01-29  
   planetary ephem.      DE431  
   SB-pert. ephem.      SB431-N16  
   condition code      0  
   norm. resid. RMS      .51983  
   source      ORB  
   producer      Otto Matic  
   solution date      2020-Feb-22 18:19:45  

Additional Information
 Earth MOID = .603595 au 
 Jupiter MOID = 2.40435 au 
 T_jup = 3.540 
[ show covariance matrix ]

Ephemeris | Orbit Diagram | Orbital Elements | Mission Design | Physical Parameters | Discovery Circumstances ]

Physical Parameter Table
Parameter Symbol Value Units Sigma Reference Notes
absolute magnitude H 14.9   n/a MPO337314  

7079 Baghdad           Discovered 1986 Sept. 5 by E. W. Elst and V. Ivanova at Smolyan.
Baghdad was founded near one of the foremost cities of old Mesopotamia by the Arab Abbasid dynasty in the eighth century. Its beauty has inspired many poets and musicians, and it is still well known from stories such as Thousand and One Nights.
NOTE: some special characters may not display properly (any characters within {} are an attempt to place the proper accent above a character)
Reference: 20031110/MPCPages.arcLast Updated: 2003-11-12

Alternate Designations
 1986 RR = 1992 EM35 
Ephemeris | Orbit Diagram | Orbital Elements | Mission Design | Physical Parameters | Discovery Circumstances ]
ABOUT SSD CREDITS/AWARDS PRIVACY/COPYRIGHT GLOSSARY LINKS
FirstGov 2020-Apr-06 03:41 UT
(server date/time)  
NASA Home Page
Site Manager:   Ryan S. Park
Webmaster  Alan B. Chamberlin